Regional Weather Roundup
Issued by NWS

Home | Current Version | Previous Version | Graphics & Text | Print | Product List | Glossary On
Versions: 1 2 3 4 5 6 7 8 9 10 11 12 13 14 15 16 17 18 19 20 21 22 23 24 25 26 27 28 29 30 31 32 33 34 35 36 37 38 39 40 41 42 43 44 45 46 47 48 49 50
000
ASUS43 KLOT 271209
RWRIL

ILLINOIS REGIONAL WEATHER ROUNDUP
NATIONAL WEATHER SERVICE CHICAGO/ROMEOVILLE IL
700 AM CDT TUE JUN 27 2017

NOTE: "FAIR" INDICATES FEW OR NO CLOUDS BELOW 12,000 FEET WITH NO
SIGNIFICANT WEATHER AND/OR OBSTRUCTIONS TO VISIBILITY.

* THESE STATIONS ARE NOT UNDER NWS QUALITY CONTROL. THEY ALSO MAY NOT
  REPORT WEATHER SUCH AS PRECIPITATION OR FOG.

ILZ001-002-007-009-015-016-024-271300-
NORTHWEST ILLINOIS

CITY           SKY/WX    TMP DP  RH WIND       PRES   REMARKS
MOLINE         SUNNY     54  47  77 CALM      30.16R
6HR MIN TEMP:  46; 6HR MAX TEMP:  54;

STERLING*      SUNNY     54  50  86 SW5       30.15R
SAVANNA*       SUNNY     53  51  92 CALM      30.14S
$$

ILZ003-004-008-010-011-017-018-271300-
NORTH CENTRAL ILLINOIS

CITY           SKY/WX    TMP DP  RH WIND       PRES   REMARKS
ROCKFORD       SUNNY     52  48  86 S3        30.14S
6HR MIN TEMP:  48; 6HR MAX TEMP:  52;

FREEPORT*      SUNNY     53  46  76 CALM      30.16R
ROCHELLE*      SUNNY     52  48  87 CALM      30.15R
DE KALB*       MOSUNNY   56  47  71 W7        30.14S
PERU*          SUNNY     53  49  86 CALM      30.16R
$$

ILZ005-006-012>014-019>023-271300-
NORTHEAST ILLINOIS

CITY           SKY/WX    TMP DP  RH WIND       PRES   REMARKS
CHICAGO-OHARE  SUNNY     58  47  66 W8        30.12R
6HR MIN TEMP:  50; 6HR MAX TEMP:  58;

CHICAGO-MIDWAY SUNNY     57  48  72 SW5       30.12S
6HR MIN TEMP:  54; 6HR MAX TEMP:  58;

AURORA         SUNNY     54  49  83 W3        30.15R
6HR MIN TEMP:  45; 6HR MAX TEMP:  54;

LANSING*       MOSUNNY   55  48  79 CALM      30.13S
JOLIET*        MOSUNNY   55  50  81 CALM      30.14S
WAUKEGAN       SUNNY     56  49  77 W3        30.11R
6HR MIN TEMP:  50; 6HR MAX TEMP:  56;

DUPAGE AIRPORT SUNNY     55  48  77 W8        30.13R
6HR MIN TEMP:  48; 6HR MAX TEMP:  55;

WHEELING       SUNNY     57  48  72 W3        30.13R
6HR MIN TEMP:  50; 6HR MAX TEMP:  57;

MORRIS*        MOSUNNY   53  47  81 CALM      30.13S
ROMEOVILLE*    SUNNY     56  47  70 W3        30.14R
NORTHERLY ISL    N/A     60  45  57 W5          N/A
$$

LMZ740>746-271300-
SOUTHERN LAKE MICHIGAN

STATION/POSITION SKY/WX   TEMP    WIND        PRES    VSBY  WAVE
                          AIR SEA DIR/SP/G                  HT/PER
                          (F)     (DEG/KT/KT) (MB)    (MI)  (FT/S)
SOUTHERN BUOY              60 61  290/ 10/ 12 1018.6          1/ 4
WILMETTE HARBOR            58 62  250/  8/ 10   N/A           1/ 5
HARRISON CRIB              61     250/  5/  5   N/A
BURNHAM HARBOR             60                   N/A
CALUMET HARBOR             57     210/  4/  6 1019.6R
BURNS HARBOR               60     240/  7/  8 1020.7R
MICHIGAN CITY              61     260/ 10/ 11   N/A
MICHIGAN CITY 6N           61 65  280/  8/ 10   N/A           2/ 5
ST. JOSEPH                 62 69  300/  8/ 10 1019.9          3/ 5
$$

ILZ025>027-034>036-040-047-049-050-058-095>099-271300-
WEST-CENTRAL ILLINOIS

CITY           SKY/WX    TMP DP  RH WIND       PRES   REMARKS
QUINCY         SUNNY     57  53  86 S5        30.15R
GALESBURG*     SUNNY     50  50 100 CALM      30.17S
MACOMB*        SUNNY     52  51  97 CALM      30.18S
JACKSONVILLE*  SUNNY     54  52  93 CALM      30.16R
PITTSFIELD*    SUNNY     56  55  95 CALM      30.16S
$$

ILZ028>032-037-038-041>044-048-051>054-059>061-271300-
CENTRAL ILLINOIS

CITY           SKY/WX    TMP DP  RH WIND       PRES   REMARKS
PONTIAC        MOSUNNY   54  51  88 CALM      30.16S
BLOOMINGTON    MOSUNNY   54  51  90 CALM      30.17R
DECATUR        SUNNY     56  52  86 CALM      30.16R
PEORIA         MOSUNNY   54  52  93 CALM      30.17R
6HR MIN TEMP:  49; 6HR MAX TEMP:  54;

LACON*         MOSUNNY   53  53  99 CALM      30.16R
LINCOLN*       SUNNY     53  53 100 CALM      30.17R
SPRINGFIELD    MOSUNNY   57  55  93 CALM      30.17R
6HR MIN TEMP:  50; 6HR MAX TEMP:  58;

TAYLORVILLE    MOSUNNY   55  54  94 CALM      30.16S
6HR MIN TEMP:  48; 6HR MAX TEMP:  55;

$$

ILZ033-039-045-046-055>057-062-063-271300-
EAST-CENTRAL ILLINOIS

CITY           SKY/WX    TMP DP  RH WIND       PRES   REMARKS
CHAMPAIGN      SUNNY     55  51  86 CALM      30.16R
RANTOUL*       MOSUNNY   56  53  89 CALM      30.16R
MATTOON        SUNNY     57  54  89 N3        30.16R
PARIS*         MOSUNNY   52  51  97 CALM      30.17R
$$

ILZ079-100>102-271300-
SOUTHWEST ILLINOIS

CITY           SKY/WX    TMP DP  RH WIND       PRES   REMARKS
ALTON          SUNNY     55  55 100 CALM      30.17R
BELLEVILLE     SUNNY     56  54  92 CALM      30.17R
CAHOKIA*       SUNNY     59  55  87 CALM      30.16S
SPARTA*        SUNNY     57  55  94 CALM      30.17S
$$

ILZ064>066-069>071-074>076-080>082-084>086-088>090-092>094-271300-
SOUTH-CENTRAL ILLINOIS

CITY           SKY/WX    TMP DP  RH WIND       PRES   REMARKS
CARBONDALE     SUNNY     59  59 100 CALM      30.16S
6HR MIN TEMP:  55; 6HR MAX TEMP:  61;

CAIRO*         MOSUNNY   62  57  85 CALM      30.15S
EFFINGHAM*     SUNNY     56  55  96 CALM      30.18R
MARION         SUNNY     59  59 100 N6        30.17R
MT. VERNON     SUNNY     55  54  96 NE3       30.17R
CENTRALIA*     SUNNY     56  55  94 CALM      30.16R
SALEM*         SUNNY     60  53  78 CALM      30.16R
METROPOLIS*    SUNNY     62  56  83 CALM      30.17R
$$

ILZ067-068-072-073-078-083-087-091-271300-
SOUTHEAST ILLINOIS

CITY           SKY/WX    TMP DP  RH WIND       PRES   REMARKS
LAWRENCEVILLE  SUNNY     57  55  93 CALM      30.16R
FLORA*         SUNNY     59  53  79 N3        30.17R
FAIRFIELD*     SUNNY     56  54  91 CALM      30.15S
HARRISBURG*    SUNNY     59  55  88 CALM      30.16R
ROBINSON*      SUNNY     54  52  94 CALM      30.17R
CARMI*         SUNNY     58  56  92 CALM      30.15S
$$

ABBREVIATIONS USED IN REMARKS
   TC - TEMPERATURE IN CELSIUS
  WCI - WIND CHILL INDEX
   HX - HEAT INDEX
  VSB - VISIBILITY
$$





USA.gov is the U.S. government's official web portal to all federal, state and local government web resources and services.